Regional Weather Roundup
Issued by NWS

Home | Current Version | Previous Version | Text Only | Print | Product List | Glossary Off
Versions: 1 2 3 4 5 6 7 8 9 10 11 12 13 14 15 16 17 18 19 20 21 22 23 24 25 26 27 28 29 30 31 32 33 34 35 36 37 38 39 40 41 42 43 44 45 46 47 48 49 50

000
ASUS43 KFSD 280010
RWRSD

WEATHER ROUNDUP FOR SOUTH DAKOTA
NATIONAL WEATHER SERVICE SIOUX FALLS SD
600 PM CST TUE JAN 27 2015

NOTE: "FAIR" INDICATES FEW OR NO CLOUDS BELOW 12,000 FEET WITH NO
SIGNIFICANT WEATHER AND/OR OBSTRUCTIONS TO VISIBILITY.


SDZ001>005-009-010-012>017-280100-
NORTHWEST AND NORTH CENTRAL SOUTH DAKOTA

CITY           SKY/WX    TMP DP  RH WIND       PRES   REMARKS
BUFFALO          N/A     60  30  32 N7        29.78S
FAITH            N/A     62  27  26 CALM      29.83
MOBRIDGE       CLEAR     44  33  65 E9        29.82S
$$

SDZ012>016-024>037-041>051-057-063-072>074-280100-
SOUTHWEST AND SOUTH CENTRAL SOUTH DAKOTA

CITY           SKY/WX    TMP DP  RH WIND       PRES   REMARKS
RAPID CTY ARPT CLEAR     58  30  34 E3        29.85F
PIERRE         CLEAR     46  35  65 E8        29.84S
CUSTER         PTCLDY    55  23  28 W9G20     29.96F
ELLSWORTH AFB  CLEAR     62  32  32 E6        29.85F
PHILIP         CLEAR     58  30  34 S3        29.83F
PINE RIDGE     CLEAR     50  31  48 VRB3      29.91F
WINNER         FAIR      53  36  52 SE8       29.86F
$$

SDZ004>011-016>023-039-040-280100-
NORTHEAST SOUTH DAKOTA

CITY           SKY/WX    TMP DP  RH WIND       PRES   REMARKS
ABERDEEN       CLEAR     37  33  85 S10       29.90F
WATERTOWN      CLEAR     33  30  88 S13       29.95S WCI  24
SISSETON         N/A     32  32 100 S16       29.96S WCI  21
$$

SDZ017-020-022-023-036>040-048>070-280100-
SOUTHEAST SOUTH DAKOTA

CITY           SKY/WX    TMP DP  RH WIND       PRES   REMARKS
SIOUX FALLS    PTCLDY    39  34  82 SE9       30.00S
HURON          CLEAR     36  33  89 SE13      29.92F
CHAMBERLAIN    CLEAR     43  35  74 SE7       29.88S
MITCHELL       CLEAR     40  37  89 SE12      29.94F
YANKTON        CLEAR     43  34  70 E8        29.98S
$$

ABBREVIATIONS USED IN REMARKS
   TC - TEMPERATURE IN CELSIUS
  WCI - WIND CHILL INDEX
   HX - HEAT INDEX
  VSB - VISIBILITY




USA.gov is the U.S. government's official web portal to all federal, state and local government web resources and services.